Weather History for KSDY - April, 2013

Change the Weather History Date:

Monday, April 29, 2013

  Actual Average Record
Temperature  
Mean Temperature 55 °F -  
Max Temperature 66 °F 64 °F 91 °F (1949)
Min Temperature 44 °F 34 °F 15 °F (1966)
Degree Days  
Heating Degree Days 10    
Growing Degree Days 5 (Base 50)    
Moisture  
Dew Point 33 °F    
Average Humidity 49    
Maximum Humidity 76    
Minimum Humidity 28    
Precipitation  
Precipitation 0.00 in - - ()
Sea Level Pressure  
Sea Level Pressure 29.56 in    
Wind  
Wind Speed 12 mph (SW)    
Max Wind Speed 21 mph    
Max Gust Speed 39 mph    
Visibility 10 miles    
Events      
Averages and records for this station are not official NWS values.
T = Trace of Precipitation, MM = Missing Value Source: NWS Daily Summary

Daily Weather History Graph

Daily Weather History Graph

Search for Another Location

Airport or City:

Trip Planner

Search our weather history database for the weather conditions in past years. The results will help you decide how hot, cold, wet, or windy it might be!

Date:

Astronomy

Apr. 29, 2013 Rise Set
Actual Time 5:42 AM MDT 8:06 PM MDT
Civil Twilight 5:07 AM MDT 8:41 PM MDT
Nautical Twilight 4:25 AM MDT 9:24 PM MDT
Astronomical Twilight 3:36 AM MDT 10:13 PM MDT
Moon No Moon Rise 8:58 AM MDT (4/29)
Length of Visible Light 15h 33m
Length of Day
14h 24m
Waning Gibbous, 79% of the Moon is Illuminated
Apr 29
Waning Gibbous
May 2
Last Quarter
May 9
New
May 17
First Quarter
May 24
Full

Hourly Weather History & Observations

Time (MDT) Temp. Windchill Dew Point Humidity Pressure Visibility Wind Dir Wind Speed Gust Speed Precip Events Conditions
12:15 AM 46.4 °F 42.4 °F 26.6 °F 46% 29.79 in 10.0 mi South 8.1 mph - N/A   Clear
12:35 AM 46.4 °F 41.9 °F 26.6 °F 46% 29.78 in 10.0 mi South 9.2 mph - N/A   Clear
12:55 AM 46.4 °F 42.4 °F 26.6 °F 46% 29.78 in 10.0 mi South 8.1 mph - N/A   Clear
1:15 AM 46.4 °F 41.5 °F 24.8 °F 43% 29.77 in 10.0 mi South 10.4 mph - N/A   Clear
1:35 AM 44.6 °F 39.7 °F 26.6 °F 49% 29.76 in 10.0 mi South 9.2 mph - N/A   Clear
1:55 AM 46.4 °F 41.5 °F 26.6 °F 46% 29.74 in 10.0 mi South 10.4 mph - N/A   Clear
2:15 AM 44.6 °F 39.2 °F 26.6 °F 49% 29.73 in 10.0 mi SSE 10.4 mph - N/A   Clear
2:35 AM 44.6 °F 40.2 °F 26.6 °F 49% 29.71 in 10.0 mi South 8.1 mph - N/A   Clear
2:55 AM 44.6 °F 39.2 °F 28.4 °F 53% 29.70 in 10.0 mi South 10.4 mph - N/A   Clear
3:35 AM 44.6 °F 38.4 °F 28.4 °F 53% 29.67 in 10.0 mi South 12.7 mph - N/A   Clear
4:35 AM 44.6 °F 38.1 °F 32.0 °F 61% 29.63 in 10.0 mi SSE 13.8 mph - N/A   Mostly Cloudy
4:55 AM 46.4 °F 40.7 °F 33.8 °F 62% 29.63 in 10.0 mi SSE 12.7 mph - N/A   Overcast
5:15 AM 44.6 °F 40.7 °F 33.8 °F 66% 29.64 in 10.0 mi South 6.9 mph - N/A   Overcast
5:35 AM 44.6 °F 41.4 °F 35.6 °F 71% 29.63 in 10.0 mi SSW 5.8 mph - N/A   Overcast
5:55 AM 44.6 °F 39.2 °F 35.6 °F 71% 29.62 in 10.0 mi SSW 10.4 mph - N/A   Overcast
6:15 AM 46.4 °F 41.9 °F 35.6 °F 66% 29.61 in 10.0 mi SW 9.2 mph - N/A   Overcast
6:35 AM 44.6 °F 39.7 °F 35.6 °F 71% 29.60 in 10.0 mi SSW 9.2 mph - N/A   Mostly Cloudy
6:55 AM 44.6 °F 39.7 °F 37.4 °F 76% 29.60 in 10.0 mi SSW 9.2 mph - N/A   Partly Cloudy
7:15 AM 46.4 °F 41.5 °F 39.2 °F 76% 29.60 in 8.0 mi SSW 10.4 mph - N/A   Clear
7:55 AM 50.0 °F - 39.2 °F 66% 29.59 in 6.0 mi SSW 17.3 mph - N/A   Clear
8:15 AM 51.8 °F - 39.2 °F 62% 29.59 in 7.0 mi SSW 13.8 mph - N/A   Clear
8:35 AM 53.6 °F - 41.0 °F 62% 29.58 in 8.0 mi SSW 12.7 mph - N/A   Clear
8:55 AM 53.6 °F - 39.2 °F 58% 29.58 in 10.0 mi SSW 8.1 mph - N/A   Clear
9:15 AM 57.2 °F - 35.6 °F 44% 29.57 in 10.0 mi WSW 12.7 mph - N/A   Clear
9:35 AM 60.8 °F - 33.8 °F 36% 29.56 in 7.0 mi WSW 9.2 mph - N/A   Clear
9:55 AM 60.8 °F - 32.0 °F 34% 29.55 in 5.0 mi West 12.7 mph - N/A   Mostly Cloudy
10:55 AM 60.8 °F - 30.2 °F 31% 29.53 in 5.0 mi WSW 12.7 mph - N/A   Overcast
11:15 AM 62.6 °F - 30.2 °F 30% 29.53 in 9.0 mi SW 13.8 mph - N/A   Mostly Cloudy
11:35 AM 62.6 °F - 30.2 °F 30% 29.52 in 10.0 mi WSW 17.3 mph 20.7 mph N/A   Partly Cloudy
11:55 AM 64.4 °F - 30.2 °F 28% 29.51 in 10.0 mi West 17.3 mph 20.7 mph N/A   Partly Cloudy
12:15 PM 64.4 °F - 30.2 °F 28% 29.51 in 10.0 mi West 20.7 mph 27.6 mph N/A   Scattered Clouds
12:35 PM 64.4 °F - 30.2 °F 28% 29.50 in 10.0 mi West 20.7 mph 25.3 mph N/A   Overcast
12:55 PM 62.6 °F - 30.2 °F 30% 29.50 in 10.0 mi West 16.1 mph 25.3 mph N/A   Overcast
1:15 PM 62.6 °F - 30.2 °F 30% 29.49 in 10.0 mi West 16.1 mph 26.5 mph N/A   Overcast
1:35 PM 62.6 °F - 32.0 °F 32% 29.48 in 10.0 mi West 19.6 mph 27.6 mph N/A   Overcast
1:55 PM 62.6 °F - 30.2 °F 30% 29.47 in 10.0 mi WSW 19.6 mph - N/A   Overcast
2:15 PM 62.6 °F - 32.0 °F 32% 29.47 in 10.0 mi WSW 17.3 mph 21.9 mph N/A   Overcast
2:35 PM 64.4 °F - 33.8 °F 32% 29.46 in 10.0 mi WSW 16.1 mph 24.2 mph N/A   Scattered Clouds
3:15 PM 66.2 °F - 33.8 °F 30% 29.44 in 10.0 mi SW 15.0 mph 24.2 mph N/A   Clear
3:35 PM 64.4 °F - 33.8 °F 32% 29.41 in 10.0 mi SW 13.8 mph 23.0 mph N/A   Partly Cloudy
4:15 PM 64.4 °F - 33.8 °F 32% 29.42 in 10.0 mi WSW 15.0 mph 24.2 mph N/A   Clear
4:35 PM 64.4 °F - 32.0 °F 30% 29.41 in 10.0 mi SW 11.5 mph - N/A   Partly Cloudy
4:55 PM 64.4 °F - 32.0 °F 30% 29.41 in 10.0 mi SW 18.4 mph - N/A   Mostly Cloudy
5:35 PM 53.6 °F - 37.4 °F 54% 29.47 in 9.0 mi WSW 20.7 mph 39.1 mph N/A   Overcast
5:55 PM 53.6 °F - 37.4 °F 54% 29.45 in 10.0 mi SW 13.8 mph - N/A   Overcast
6:15 PM 53.6 °F - 39.2 °F 58% 29.44 in 10.0 mi SW 11.5 mph 19.6 mph N/A   Overcast
6:55 PM 51.8 °F - 39.2 °F 62% 29.45 in 10.0 mi SW 10.4 mph - N/A   Clear
7:15 PM 51.8 °F - 41.0 °F 67% 29.47 in 10.0 mi SW 9.2 mph - N/A   Clear
7:35 PM 51.8 °F - 39.2 °F 62% 29.48 in 10.0 mi SW 8.1 mph - N/A   Partly Cloudy
7:55 PM 51.8 °F - 39.2 °F 62% 29.49 in 10.0 mi WSW 11.5 mph - N/A   Partly Cloudy
8:15 PM 53.6 °F - 37.4 °F 54% 29.48 in 10.0 mi West 15.0 mph - N/A   Mostly Cloudy
8:35 PM 51.8 °F - 37.4 °F 58% 29.48 in 10.0 mi WSW 16.1 mph - N/A   Overcast
8:55 PM 51.8 °F - 35.6 °F 54% 29.50 in 10.0 mi WSW 15.0 mph - N/A   Overcast
9:35 PM 51.8 °F - 35.6 °F 54% 29.52 in 10.0 mi WSW 12.7 mph - N/A   Clear
9:55 PM 50.0 °F - 33.8 °F 54% 29.52 in 10.0 mi West 19.6 mph 25.3 mph N/A   Clear
10:15 PM 48.2 °F - 33.8 °F 58% 29.53 in 10.0 mi West 12.7 mph 18.4 mph N/A   Clear
10:35 PM 48.2 °F - 33.8 °F 58% 29.54 in 10.0 mi West 9.2 mph - N/A   Clear
11:15 PM 46.4 °F 40.7 °F 28.4 °F 50% 29.54 in 10.0 mi West 12.7 mph 17.3 mph N/A   Clear
11:35 PM 46.4 °F 39.8 °F 28.4 °F 50% 29.54 in 10.0 mi West 16.1 mph - N/A   Clear
11:55 PM 44.6 °F 36.9 °F 28.4 °F 53% 29.55 in 10.0 mi West 18.4 mph 23.0 mph N/A   Clear